Tracking 35274 objects as of 10-Sep-2026
HD Live streaming from Space Station
objects crossing your sky now

SL-12 R/B(1)


SL-12 R/B(1) is no longer on orbit


NORAD ID: 25523
Int'l Code: 1998-065B
Launch date: November 4, 1998
Source: Commonwealth of Independent States (former USSR) (CIS)
Launch site: TYURATAM MISSILE AND SPACE COMPLEX (TTMTR)
Decay date: 1998-11-06

Note: This is a ROCKET BODY
Your satellite tracking list
Your tracking list is empty




NASA's NSSDC Master Catalog

Two Line Element Set (TLE):
1 25523U 98065B   98309.73549116  .07684372  00000-0  18146-3 0  9990
2 25523 051.6062 122.0029 0014623 272.3153 087.6892 16.44905678   251
Source of the keplerian elements: AFSPC